Regional Weather Roundup
Issued by NWS

Home | Current Version | Previous Version | Graphics & Text | Print | Product List | Glossary On
Versions: 1 2 3 4 5 6 7 8 9 10 11 12 13 14 15 16 17 18 19 20 21 22 23 24 25 26 27
000
ASUS45 KSLC 010010
RWRUT

UTAH REGIONAL WEATHER ROUNDUP
NATIONAL WEATHER SERVICE SALT LAKE CITY UT
600 PM MDT SAT APR 30 2016

UTZ001>011-023>025-010100-

NORTHERN UTAH

CITY           SKY/WX    TMP DP  RH WIND       PRES   REMARKS
BRIGHAM CITY   CLOUDY    59  28  30 N7G17     29.98R
HILL AFB       CLOUDY    53  30  41 NE16G23   29.97R
LOGAN          CLOUDY    57  36  45 VRB7      29.98R
OGDEN          CLOUDY    55  31  39 NE14G21   29.98R
PROVO AIRPORT  PTSUNNY   57  34  41 E5        29.92R
SALT LAKE CITY CLOUDY    61  27  27 NE18      29.92R
VERNAL         CLOUDY    47  31  53 NE22G29   30.01R
WENDOVER       MOSUNNY   54  37  54 N9        29.99S
HEBER CITY     CLOUDY    46  34  61 E5        29.96S

$$

UTZ012>022-026-027-010100-

SOUTHERN/CENTRAL UTAH

CITY           SKY/WX    TMP DP  RH WIND       PRES   REMARKS
BLANDING       CLOUDY    54  35  48 W8        29.93R
BRYCE CANYON   PTSUNNY   40  36  86 S6        29.91F
CEDAR CITY     CLOUDY    46  41  82 N7        29.87R
DELTA          PTSUNNY   57  30  35 N13       29.87R
HANKSVILLE     CLOUDY    59  28  31 NE16      29.88R
MILFORD        CLOUDY    54  39  57 NE24G31   29.86R
MOAB/CYNLANDS  PTSUNNY   57  30  35 NE20      29.85R
PRICE          MOSUNNY   50  28  42 NE15G23   29.94R
ST GEORGE      CLOUDY    57  43  58 SE12      29.80R

$$

REGIONAL REPORTS     COLORADO/ARIZONA

CITY           SKY/WX    TMP DP  RH WIND       PRES   REMARKS
CRAIG, CO      CLOUDY    47  23  38 E14       29.99R
GRAND JUNCTION CLOUDY    53  31  42 N13       29.88R
RIFLE          CLOUDY    50  32  50 NW7       29.92R
MONTROSE       CLOUDY    53  27  36 NW8       29.88S
CORTEZ         CLOUDY    52  37  56 S10       29.85R
PAGE, AZ       CLOUDY    56  42  59 E16       29.85R
GRAND CANYON   LGT RAIN  40  36  86 E10       29.88R WCI  33
KINGMAN        CLOUDY    56  45  66 N10       29.78R
FLAGSTAFF      PTSUNNY   43  38  82 NE12      29.83S

$$

REGIONAL REPORTS    NEVADA/IDAHO/WYOMING

CITY           SKY/WX    TMP DP  RH WIND       PRES   REMARKS
LAS VEGAS, NV  TSTM      55  51  86 NE12G38   29.76R VSB 1
ELY            MOSUNNY   48  37  65 N25G32    29.95R
ELKO           PTSUNNY   57  33  40 N16       29.99S
POCATELLO, ID  PTSUNNY   56  37  49 CALM      30.03R
BURLEY         CLOUDY    57  38  48 N5        30.02S
EVANSTON, WY   CLOUDY    38  30  73 E23G36    30.07R WCI  27
ROCK SPRINGS   CLOUDY    38  30  73 NE22G29   30.11R WCI  27
KEMMERER         N/A     34  32  93 E23G30    30.10S WCI  22

$$




USA.gov is the U.S. government's official web portal to all federal, state and local government web resources and services.